[[{"header":{"parameterUnit":"m.s-1","parameterCategory":1,"la1":30.2991,"la2":30.254,"lo1":-89.0895,"lo2":-89.0444,"dy":0.0017,"dx":0.0017,"nx":28,"ny":28,"refTime":"2023-10-30T09:00:00:Z","depth":0,"parameterNumber":2,"parameterNumberName":"U-component_of_WINDS"},"data":[0,0,0,0,0,0,0,0,0,0,0,0,0,0,0,0,0,0,0,0,0,0,0,0,0,0,0,0,0,0,0,0,0,0,0,0,0,0,0,0,0,0,0,0,0,0,0,0,0,0,0,0,0,0,0,0,0,0,-1.6374,-1.6375,0,-1.6508,-1.6509,-1.6511,-1.6533,-1.6532,-1.6531,-1.653,-1.6671,-1.6675,-1.668,0,0,0,0,0,0,0,0,0,0,0,0,0,-1.6141,-1.6146,-1.6373,-1.6375,-1.6377,-1.6508,-1.6509,-1.6511,-1.6533,-1.6532,-1.6531,-1.6529,-1.6669,-1.6675,-1.668,0,0,0,0,0,0,0,0,0,0,0,0,0,-1.6256,-1.6147,-1.6373,-1.6404,-1.6408,-1.6507,-1.6509,-1.6512,-1.6534,-1.6532,-1.653,-1.6529,-1.6667,-1.6674,-1.6681,-1.6761,0,0,-1.6703,-1.6707,0,0,0,0,0,0,0,0,-1.6249,-1.6264,-1.6398,-1.6402,-1.6406,-1.6502,-1.6479,-1.6595,-1.6534,-1.6486,-1.653,-1.6528,-1.6616,-1.6627,-1.6656,-1.6767,-1.6773,-1.6704,-1.6708,-1.6712,-1.6714,0,0,0,0,0,0,0,-1.6241,-1.6259,-1.6427,-1.6399,-1.6405,-1.6412,-1.6427,-1.6501,-1.6559,-1.649,-1.6492,-1.6507,-1.6618,-1.6649,-1.666,-1.6775,-1.6704,-1.671,-1.6715,-1.6718,-1.6961,-1.6963,0,0,0,0,0,0,-1.6227,-1.6252,-1.6422,-1.6431,-1.6322,-1.6418,-1.6434,-1.6473,-1.6558,-1.657,-1.6509,-1.6508,-1.6638,-1.6651,-1.6665,-1.6765,-1.6711,-1.6718,-1.6722,-1.6959,-1.6962,-1.6964,0,0,0,0,0,0,-1.6222,-1.6242,-1.6417,-1.6342,-1.6365,-1.6424,-1.6468,-1.6477,-1.6508,-1.6573,-1.6583,-1.653,-1.6637,-1.6655,-1.6737,-1.677,-1.6722,-1.6728,-1.6957,-1.696,-1.6963,-1.6965,0,0,0,0,0,0,-1.6215,-1.624,-1.627,-1.6342,-1.6369,-1.6485,-1.647,-1.6481,-1.652,-1.652,-1.6595,-1.6606,-1.6637,-1.6726,-1.6744,-1.6779,-1.6734,-1.6954,-1.6958,-1.6962,-1.6962,-1.6968,-1.6973,0,0,0,0,0,-1.6207,-1.6265,-1.6271,-1.6291,-1.6406,-1.6487,-1.6502,-1.6536,-1.6522,-1.6553,-1.6596,-1.6603,-1.6764,-1.6734,-1.6755,-1.6793,-1.6952,-1.6957,-1.6962,-1.696,-1.6967,-1.6973,0,0,0,0,0,0,-1.6195,-1.6275,-1.6282,-1.6365,-1.6419,-1.6491,-1.6531,-1.6542,-1.6602,-1.6599,-1.664,-1.6657,-1.6737,-1.6774,-1.6739,-1.6876,-1.6857,-1.6866,-1.6849,-1.6856,-1.6861,-1.685,-1.674,0,0,0,0,0,-1.6202,-1.626,-1.6327,-1.6394,-1.6421,-1.6471,-1.6507,-1.6529,-1.6587,-1.661,-1.6658,-1.6715,-1.6778,-1.6819,-1.6881,-1.6968,-1.6986,-1.7004,-1.701,-1.7014,-1.7021,-1.7072,-1.7081,-1.698,-1.698,-1.698,0,0,-1.6217,-1.6268,-1.6302,-1.6393,-1.6437,-1.6497,-1.649,-1.6554,-1.6599,-1.662,-1.67,-1.6738,-1.6805,-1.689,-1.693,-1.6923,-1.7053,-1.702,-1.7022,-1.7028,-1.7078,-1.7087,-1.7096,-1.6983,-1.6983,-1.6982,0,0,-1.6276,-1.6319,-1.638,-1.6425,-1.6492,-1.6526,-1.6541,-1.6611,-1.6637,-1.6718,-1.6736,-1.6792,-1.6899,-1.6947,-1.6985,-1.7064,-1.7074,-1.7083,-1.711,-1.716,-1.7167,-1.7175,-1.7204,-1.7214,-1.7091,-1.7091,-1.7091,0,-1.6286,-1.6376,-1.6411,-1.6474,-1.6515,-1.6536,-1.6599,-1.6642,-1.6726,-1.6754,-1.6745,-1.6882,-1.6928,-1.7026,-1.7045,-1.7075,-1.7095,-1.7074,-1.7163,-1.7171,-1.7178,-1.7207,-1.7218,-1.7091,-1.7091,-1.7091,-1.7091,0,-1.6387,-1.6449,-1.6491,-1.6571,-1.6616,-1.6679,-1.6725,-1.6768,-1.6786,-1.6821,-1.6906,-1.6962,-1.7037,-1.7062,-1.708,-1.7163,-1.7157,-1.7155,-1.7137,-1.7188,-1.7216,-1.7227,-1.7092,-1.7092,-1.7092,-1.7092,0,0,-1.6439,-1.6539,-1.6554,-1.6592,-1.6668,-1.6718,-1.6784,-1.6856,-1.6892,-1.695,-1.7007,-1.7099,-1.7099,-1.7142,-1.7167,-1.721,-1.7271,-1.7203,-1.7206,-1.7214,-1.7368,-1.7368,-1.738,-1.7279,-1.7281,-1.7283,-1.7362,0,-1.6507,-1.6622,-1.6657,-1.6755,-1.6814,-1.6837,-1.6894,-1.6948,-1.6984,-1.7041,-1.7081,-1.7146,-1.714,-1.7166,-1.721,-1.7254,-1.7302,-1.7249,-1.7334,-1.7336,-1.7316,-1.7395,-1.7395,-1.7468,-1.7373,-1.7375,-1.7376,0,-1.6601,-1.666,-1.6764,-1.6835,-1.6861,-1.6912,-1.6982,-1.7036,-1.7099,-1.7122,-1.7172,-1.7193,-1.7265,-1.7244,-1.7344,-1.7307,-1.7344,-1.7372,-1.7375,-1.7384,-1.7359,-1.7406,-1.7491,-1.7502,-1.7394,-1.7392,-1.7391,0,-1.663,-1.6736,-1.6812,-1.6844,-1.6928,-1.6964,-1.7001,-1.7062,-1.7104,-1.7167,-1.7195,-1.7265,-1.7303,-1.7358,-1.7399,-1.7379,-1.7496,-1.7478,-1.7519,-1.7518,-1.7542,-1.754,-1.7634,-1.7566,-1.7565,-1.7565,-1.7565,0,-1.6702,-1.6765,-1.6827,-1.6873,-1.6945,-1.6985,-1.7056,-1.7095,-1.715,-1.7206,-1.7231,-1.7283,-1.7334,-1.7394,-1.7427,-1.7506,-1.7523,-1.7545,-1.7553,-1.7543,-1.754,-1.7567,-1.7564,-1.7568,-1.7567,-1.7567,-1.7566,0,-1.6746,-1.679,-1.6875,-1.6948,-1.6968,-1.7018,-1.7082,-1.713,-1.7167,-1.7238,-1.7257,-1.7316,-1.7388,-1.7435,-1.7527,-1.7549,-1.7636,-1.7642,-1.7614,-1.7618,-1.7656,-1.7652,-1.7772,-1.779,-1.7709,-1.7709,-1.771,0,-1.6789,-1.6838,-1.6917,-1.6955,-1.6993,-1.7055,-1.7098,-1.7141,-1.7185,-1.7262,-1.7301,-1.7375,-1.7436,-1.7551,-1.7603,-1.7675,-1.7684,-1.7721,-1.7694,-1.7683,-1.7685,-1.7682,-1.7688,-1.7725,-1.7725,-1.7726,-1.7726,0,-1.6861,-1.6881,-1.6941,-1.701,-1.706,-1.7117,-1.7174,-1.7205,-1.7257,-1.7306,-1.738,-1.7428,-1.7522,-1.7596,-1.7673,-1.7713,-1.773,-1.7734,-1.7748,-1.7738,-1.772,-1.7731,-1.7626,-1.7731,-1.7731,-1.773,-1.773,-1.773,-1.6906,-1.6951,-1.7014,-1.7081,-1.7129,-1.7181,-1.723,-1.7274,-1.7336,-1.7415,-1.7437,-1.7515,-1.758,-1.7684,-1.7727,-1.7789,-1.7785,-1.7804,-1.7809,-1.7813,-1.7814,-1.771,-1.7804,-1.7804,-1.7803,-1.7803,-1.7803,0,-1.698,-1.7022,-1.7083,-1.7162,-1.7215,-1.7225,-1.7289,-1.7334,-1.7401,-1.746,-1.752,-1.7606,-1.7679,-1.7737,-1.7812,-1.7851,-1.7861,-1.787,-1.7867,-1.7877,-1.7813,-1.7794,-1.7861,-1.7861,-1.7861,-1.7861,-1.7861,-1.7861,-1.7025,-1.7102,-1.7129,-1.7231,-1.7274,-1.7349,-1.7385,-1.7435,-1.7482,-1.7576,-1.7636,-1.7674,-1.7733,-1.7813,-1.7881,-1.7897,-1.7924,-1.7931,-1.7948,-1.7888,-1.7881,-1.7875,-1.7858,-1.7936,-1.7937,-1.8007,-1.8008,-1.8008]},{"header":{"parameterUnit":"m.s-1","parameterCategory":1,"la1":30.2991,"la2":30.254,"lo1":-89.0895,"lo2":-89.0444,"dy":0.0017,"dx":0.0017,"nx":28,"ny":28,"refTime":"2023-10-30T09:00:00:Z","depth":0,"parameterNumber":3,"parameterNumberName":"V-component_of_WINDS"},"data":[0,0,0,0,0,0,0,0,0,0,0,0,0,0,0,0,0,0,0,0,0,0,0,0,0,0,0,0,0,0,0,0,0,0,0,0,0,0,0,0,0,0,0,0,0,0,0,0,0,0,0,0,0,0,0,0,0,0,1.0294,1.0294,0,1.0343,1.0344,1.0344,1.0375,1.0375,1.0375,1.0375,1.0427,1.0428,1.0429,0,0,0,0,0,0,0,0,0,0,0,0,0,1.0227,1.0228,1.0294,1.0294,1.0295,1.0343,1.0344,1.0344,1.0375,1.0375,1.0375,1.0375,1.0426,1.0428,1.0429,0,0,0,0,0,0,0,0,0,0,0,0,0,1.0264,1.0228,1.0293,1.0316,1.0318,1.0343,1.0344,1.0345,1.0375,1.0375,1.0375,1.0376,1.0426,1.0428,1.0429,1.0436,0,0,1.0435,1.0436,0,0,0,0,0,0,0,0,1.0262,1.0266,1.0312,1.0314,1.0317,1.0353,1.0339,1.0375,1.0375,1.0353,1.0375,1.0376,1.0402,1.0406,1.0415,1.0438,1.0441,1.0435,1.0436,1.0437,1.0438,0,0,0,0,0,0,0,1.0259,1.0264,1.0313,1.0312,1.0316,1.0324,1.0329,1.0346,1.0376,1.0355,1.0358,1.0363,1.0404,1.0413,1.0416,1.0441,1.0435,1.0437,1.0438,1.0439,1.0475,1.0475,0,0,0,0,0,0,1.0253,1.0262,1.0312,1.0315,1.0289,1.0325,1.0331,1.0341,1.0376,1.0381,1.0363,1.0364,1.041,1.0414,1.0418,1.0429,1.0437,1.0439,1.044,1.0475,1.0475,1.0475,0,0,0,0,0,0,1.0251,1.0257,1.031,1.0289,1.0296,1.0326,1.0337,1.0342,1.0351,1.0381,1.0387,1.0367,1.041,1.0415,1.0432,1.0431,1.044,1.0441,1.0475,1.0475,1.0475,1.045,0,0,0,0,0,0,1.0249,1.0256,1.0258,1.0289,1.0297,1.0322,1.0337,1.0343,1.0354,1.0357,1.0387,1.0392,1.0411,1.0429,1.0433,1.0434,1.0443,1.0475,1.0475,1.0475,1.0451,1.0449,1.0447,0,0,0,0,0,1.0247,1.0249,1.0258,1.0264,1.0301,1.0322,1.0327,1.0348,1.0354,1.0357,1.0377,1.0391,1.043,1.043,1.0436,1.0437,1.0475,1.0475,1.0475,1.0452,1.0449,1.0447,0,0,0,0,0,0,1.0218,1.0254,1.0264,1.0276,1.0296,1.0327,1.0331,1.0345,1.0363,1.0364,1.039,1.0397,1.0411,1.0425,1.0424,1.0446,1.0455,1.0455,1.0435,1.0433,1.0431,1.0427,1.0444,0,0,0,0,0,1.0213,1.0227,1.0257,1.0265,1.0275,1.0301,1.0311,1.0326,1.0347,1.0355,1.0376,1.0396,1.0414,1.0424,1.0442,1.0454,1.0461,1.0457,1.0455,1.0453,1.0454,1.0462,1.0461,1.0474,1.0474,1.0474,0,0,1.0203,1.0224,1.0231,1.026,1.0277,1.0291,1.0308,1.0321,1.0332,1.0358,1.0374,1.039,1.0415,1.0429,1.0436,1.0442,1.0452,1.0453,1.0451,1.0453,1.0462,1.0461,1.046,1.0473,1.0473,1.0474,0,0,1.0192,1.0209,1.0218,1.0235,1.026,1.0278,1.028,1.0309,1.0321,1.0338,1.0358,1.0372,1.04,1.0417,1.043,1.0427,1.0441,1.0432,1.0422,1.043,1.0429,1.0429,1.0428,1.0428,1.0432,1.0432,1.0432,0,1.0176,1.0197,1.0221,1.0234,1.0247,1.0271,1.028,1.0296,1.0325,1.0334,1.0339,1.0377,1.0395,1.0414,1.0414,1.0423,1.0427,1.0428,1.0427,1.0427,1.0427,1.0427,1.0426,1.0431,1.0431,1.0431,1.0431,0,1.0177,1.0192,1.0197,1.0225,1.0238,1.0249,1.0275,1.0286,1.0301,1.0318,1.0336,1.0359,1.0382,1.0388,1.0402,1.041,1.0412,1.0422,1.0432,1.0424,1.0424,1.0424,1.0429,1.043,1.043,1.043,0,0,1.0148,1.019,1.0191,1.0205,1.0236,1.0248,1.0261,1.0284,1.0293,1.0313,1.0325,1.035,1.036,1.0374,1.0391,1.0398,1.0395,1.0407,1.0408,1.0404,1.0406,1.0398,1.0398,1.0405,1.0405,1.0405,1.0404,0,1.0142,1.0166,1.0188,1.0204,1.0219,1.0243,1.0255,1.0275,1.0292,1.0308,1.0327,1.0344,1.0356,1.0365,1.0373,1.0394,1.0396,1.0394,1.0417,1.0418,1.041,1.0398,1.039,1.0388,1.0405,1.0405,1.0405,0,1.0137,1.0156,1.0174,1.0204,1.0211,1.0221,1.0245,1.0259,1.0283,1.0296,1.0312,1.033,1.0346,1.0354,1.0377,1.0376,1.0387,1.0399,1.0399,1.0402,1.041,1.0401,1.0388,1.0387,1.0405,1.0405,1.0405,0,1.0114,1.0145,1.016,1.0171,1.0206,1.0213,1.0228,1.0253,1.0266,1.0286,1.0295,1.0317,1.033,1.0347,1.0371,1.0374,1.0392,1.0402,1.0403,1.0402,1.0405,1.0404,1.0393,1.0412,1.0412,1.0412,1.0412,0,1.0104,1.0114,1.015,1.0159,1.0172,1.0198,1.021,1.0228,1.025,1.0263,1.0286,1.0298,1.0329,1.0345,1.0364,1.0381,1.0386,1.0397,1.0402,1.0395,1.0394,1.0402,1.0403,1.0412,1.0412,1.0412,1.0412,0,1.0081,1.0105,1.0123,1.0156,1.0164,1.0172,1.0201,1.0211,1.023,1.0247,1.0253,1.0283,1.0304,1.0329,1.0358,1.0371,1.0386,1.0394,1.0378,1.0381,1.0381,1.038,1.0375,1.0376,1.0393,1.0393,1.0393,0,1.0073,1.0081,1.0115,1.0126,1.014,1.0157,1.0171,1.0197,1.021,1.024,1.0247,1.0269,1.0289,1.0321,1.0346,1.0369,1.0377,1.0374,1.038,1.0374,1.0377,1.0377,1.0378,1.0371,1.0371,1.0371,1.0371,0,1.0056,1.0068,1.0086,1.0109,1.0124,1.0144,1.0164,1.0172,1.0203,1.0216,1.0238,1.0253,1.0283,1.0306,1.0332,1.0349,1.0365,1.0368,1.037,1.0363,1.0354,1.0359,1.0373,1.0368,1.0368,1.0369,1.0369,1.0369,1.004,1.0049,1.0075,1.0095,1.0113,1.0132,1.0144,1.0165,1.0183,1.0209,1.0224,1.0246,1.0272,1.0309,1.0325,1.0343,1.0349,1.0351,1.0351,1.0351,1.035,1.0351,1.0348,1.0348,1.0348,1.0348,1.0348,0,1.0025,1.0043,1.0061,1.0089,1.0105,1.012,1.0143,1.0156,1.0174,1.0197,1.0216,1.0241,1.0264,1.0291,1.0316,1.0325,1.0333,1.033,1.033,1.0334,1.0343,1.0339,1.0323,1.0323,1.0323,1.0323,1.0323,1.0323,1.0019,1.0036,1.0051,1.0077,1.0095,1.0116,1.0129,1.0147,1.0165,1.0193,1.0211,1.0229,1.0254,1.0281,1.0303,1.031,1.0318,1.0313,1.0323,1.0331,1.0333,1.0335,1.0332,1.0315,1.0315,1.0313,1.0313,1.0313]}]]